TimePST,TemperatureF,Dew PointF,Humidity,Sea Level PressureIn,VisibilityMPH,Wind Direction,Wind SpeedMPH,Gust SpeedMPH,PrecipitationIn,Events,Conditions,WindDirDegrees,DateUTC
12:06 AM,41.0,37.4,87,30.34,10.0,SSW,5.8,-,N/A,,Overcast,200,2012-12-09 08:06:00
12:14 AM,41.0,37.4,87,30.34,10.0,South,6.9,-,N/A,,Overcast,190,2012-12-09 08:14:00
12:53 AM,39.9,37.0,89,30.36,10.0,South,6.9,-,N/A,,Mostly Cloudy,190,2012-12-09 08:53:00
1:11 AM,39.2,37.4,93,30.34,10.0,South,5.8,-,N/A,,Overcast,190,2012-12-09 09:11:00
1:27 AM,39.2,37.4,93,30.34,10.0,South,5.8,-,N/A,,Overcast,190,2012-12-09 09:27:00
1:49 AM,39.2,35.6,87,30.35,10.0,SSW,6.9,-,N/A,,Overcast,200,2012-12-09 09:49:00
1:53 AM,39.9,35.1,83,30.37,10.0,SW,4.6,-,N/A,,Overcast,220,2012-12-09 09:53:00
2:05 AM,39.2,35.6,87,30.35,10.0,SSW,8.1,-,N/A,,Overcast,200,2012-12-09 10:05:00
2:53 AM,39.9,35.1,83,30.38,10.0,SSW,4.6,-,N/A,,Overcast,210,2012-12-09 10:53:00
3:34 AM,39.2,35.6,87,30.37,10.0,SW,4.6,-,N/A,,Mostly Cloudy,220,2012-12-09 11:34:00
3:53 AM,39.9,35.1,83,30.38,10.0,Calm,Calm,-,N/A,,Overcast,0,2012-12-09 11:53:00
4:24 AM,39.2,35.6,87,30.36,10.0,SSW,4.6,-,N/A,,Overcast,210,2012-12-09 12:24:00
4:34 AM,39.2,35.6,87,30.36,10.0,SSW,3.5,-,N/A,,Overcast,200,2012-12-09 12:34:00
4:53 AM,39.9,35.1,83,30.37,10.0,Calm,Calm,-,N/A,,Overcast,0,2012-12-09 12:53:00
5:10 AM,39.2,35.6,87,30.36,10.0,South,4.6,-,N/A,,Overcast,170,2012-12-09 13:10:00
5:53 AM,39.9,35.1,83,30.37,10.0,Calm,Calm,-,N/A,,Overcast,0,2012-12-09 13:53:00
6:53 AM,39.0,35.1,86,30.37,10.0,Calm,Calm,-,N/A,,Overcast,0,2012-12-09 14:53:00
7:53 AM,39.9,35.1,83,30.36,10.0,Calm,Calm,-,N/A,,Overcast,0,2012-12-09 15:53:00
8:53 AM,39.9,35.1,83,30.35,10.0,Calm,Calm,-,N/A,,Overcast,0,2012-12-09 16:53:00
8:56 AM,39.2,35.6,87,30.35,10.0,Calm,Calm,-,N/A,,Overcast,0,2012-12-09 16:56:00
9:53 AM,39.9,36.0,86,30.37,6.0,Calm,Calm,-,N/A,,Overcast,0,2012-12-09 17:53:00
10:32 AM,39.2,37.4,93,30.35,10.0,South,3.5,-,N/A,,Overcast,180,2012-12-09 18:32:00
10:53 AM,41.0,37.0,86,30.35,10.0,SE,3.5,-,N/A,,Overcast,140,2012-12-09 18:53:00
11:01 AM,41.0,37.4,87,30.34,3.0,SSE,3.5,-,N/A,,Overcast,150,2012-12-09 19:01:00
11:04 AM,39.2,37.4,93,30.33,2.0,Calm,Calm,-,N/A,,Overcast,0,2012-12-09 19:04:00
11:53 AM,39.9,37.9,93,30.32,2.0,South,5.8,-,0.01,,Overcast,180,2012-12-09 19:53:00
12:21 PM,41.0,37.4,87,30.30,2.0,SSW,5.8,-,N/A,,Overcast,200,2012-12-09 20:21:00
12:34 PM,41.0,39.2,93,30.31,2.0,SSW,3.5,-,0.01,,Overcast,210,2012-12-09 20:34:00
12:53 PM,41.0,39.0,93,30.31,2.0,South,3.5,-,0.01,,Overcast,190,2012-12-09 20:53:00
1:53 PM,42.1,39.9,92,30.30,2.0,Calm,Calm,-,N/A,,Overcast,0,2012-12-09 21:53:00
1:57 PM,42.8,39.2,87,30.28,2.0,SSE,3.5,-,N/A,,Overcast,160,2012-12-09 21:57:00
2:03 PM,42.8,39.2,87,30.28,2.0,SSE,3.5,-,N/A,,Overcast,160,2012-12-09 22:03:00
2:06 PM,42.8,39.2,87,30.28,2.0,Calm,Calm,-,N/A,,Overcast,0,2012-12-09 22:06:00
2:53 PM,42.1,41.0,96,30.28,2.0,Calm,Calm,-,N/A,,Overcast,0,2012-12-09 22:53:00
2:54 PM,42.8,41.0,93,30.27,2.0,SE,3.5,-,N/A,,Overcast,130,2012-12-09 22:54:00
3:53 PM,43.0,41.0,93,30.30,2.0,SSW,4.6,-,0.01,,Overcast,210,2012-12-09 23:53:00
4:53 PM,43.0,41.0,93,30.30,2.0,South,4.6,-,N/A,,Overcast,170,2012-12-10 00:53:00
5:53 PM,44.1,42.1,93,30.31,2.0,Calm,Calm,-,0.01,Rain,Light Rain,0,2012-12-10 01:53:00
6:53 PM,44.1,42.1,93,30.30,2.0,Calm,Calm,-,0.03,,Overcast,0,2012-12-10 02:53:00
7:53 PM,43.0,42.1,97,30.30,2.0,NE,3.5,-,0.02,,Overcast,40,2012-12-10 03:53:00
8:00 PM,42.8,42.8,100,30.30,1.2,Calm,Calm,-,N/A,,Overcast,0,2012-12-10 04:00:00
8:45 PM,44.6,42.8,93,30.32,2.0,Calm,Calm,-,0.02,,Overcast,0,2012-12-10 04:45:00
8:53 PM,44.1,42.1,93,30.32,2.0,Calm,Calm,-,0.02,,Overcast,0,2012-12-10 04:53:00
8:57 PM,44.6,42.8,93,30.31,2.0,Calm,Calm,-,N/A,,Overcast,0,2012-12-10 04:57:00
9:05 PM,44.6,42.8,93,30.31,2.0,Calm,Calm,-,0.01,,Overcast,0,2012-12-10 05:05:00
9:20 PM,44.6,42.8,93,30.32,2.0,Calm,Calm,-,0.01,,Overcast,0,2012-12-10 05:20:00
9:36 PM,44.6,42.8,93,30.33,1.8,North,3.5,-,0.01,,Overcast,10,2012-12-10 05:36:00
9:53 PM,44.1,42.1,93,30.35,1.8,North,5.8,-,0.02,,Overcast,10,2012-12-10 05:53:00
10:03 PM,44.6,42.8,93,30.34,2.0,North,5.8,-,N/A,,Overcast,10,2012-12-10 06:03:00
10:53 PM,44.1,42.1,93,30.36,2.5,NNE,3.5,-,N/A,,Overcast,20,2012-12-10 06:53:00
11:22 PM,44.6,42.8,93,30.35,3.0,Calm,Calm,-,N/A,,Overcast,0,2012-12-10 07:22:00
11:43 PM,44.6,42.8,93,30.34,1.8,Calm,Calm,-,0.01,,Overcast,0,2012-12-10 07:43:00
11:53 PM,44.1,42.1,93,30.35,1.0,Calm,Calm,-,0.01,,Mist,0,2012-12-10 07:53:00